Retour au catalogue

STARLINK-32718

ActifCommunicationsVLEO
NORAD 62496·PAYLOAD·🇺🇸 United States

Lancé Jan 6, 2025 depuis Cape Canaveral Space Force Station

Loading…

Prochains Passages (prochaines 24 heures)

TLE

FraisSource: CelesTrak SupGP

Époque: Sep 15, 2026, 03:42 UTC

1 62496C 25003K   26258.15465278  .00011332  00000+0  41032-3 0  2588
2 62496  43.0027 298.6519 0001433 269.7496  13.6666 15.27582782    15

Suivez STARLINK-32718 en temps réel avec AllMySat

Download on the App Store